DH0GMA Weather Reports


Display with metric or nautical units.
time (UTC)temp
F
wind
direction
speed
MPH
gust
MPH
rain 1hr
in
rain 24hr
in
rain mn
in
humidity
%
barometer
mb
20260503072504 59 129 2.0 3.0 0.00 0.00 0.00 69 1015.0
20260503071503 58 92 0.0 0.0 0.00 0.00 0.00 70 1015.0
20260503070503 58 92 0.0 2.0 0.00 0.00 0.00 70 1015.1
20260503054504 50 64 0.0 1.0 0.00 0.00 0.00 81 1015.2
20260503053504 48 63 0.0 0.0 0.00 0.00 0.00 81 1015.1
20260503052504 47 63 0.0 0.0 0.00 0.00 0.00 83 1015.2
20260503051504 46 63 0.0 0.0 0.00 0.00 0.00 84 1015.1
20260503050504 46 63 0.0 0.0 0.00 0.00 0.00 84 1015.2
20260503045504 45 63 0.0 0.0 0.00 0.00 0.00 85 1015.2
20260503044504 45 63 0.0 0.0 0.00 0.00 0.00 84 1015.2
20260503043503 45 63 0.0 0.0 0.00 0.00 0.00 84 1015.2
20260503042504 45 63 0.0 0.0 0.00 0.00 0.00 84 1015.3
20260503041504 45 63 0.0 0.0 0.00 0.00 0.00 84 1015.1
20260503040504 45 63 0.0 0.0 0.00 0.00 0.00 83 1015.1
20260503035504 45 63 0.0 0.0 0.00 0.00 0.00 83 1015.2
20260503034504 45 63 0.0 0.0 0.00 0.00 0.00 82 1015.2
20260503033504 46 63 0.0 0.0 0.00 0.00 0.00 81 1015.1
20260503032503 46 63 0.0 0.0 0.00 0.00 0.00 81 1015.1
20260503031503 46 63 0.0 0.0 0.00 0.00 0.00 80 1015.0
20260503030504 47 63 0.0 0.0 0.00 0.00 0.00 80 1015.1
20260503025504 47 63 0.0 0.0 0.00 0.00 0.00 79 1015.2
20260503024504 47 63 0.0 0.0 0.00 0.00 0.00 79 1015.0
20260503023504 47 63 0.0 0.0 0.00 0.00 0.00 78 1015.2
20260503022504 48 63 0.0 0.0 0.00 0.00 0.00 78 1015.2
20260503021504 48 63 0.0 0.0 0.00 0.00 0.00 78 1015.4
20260503020504 48 63 0.0 0.0 0.00 0.00 0.00 77 1015.4
20260503015504 49 63 0.0 0.0 0.00 0.00 0.00 77 1015.4
20260503014504 49 63 0.0 0.0 0.00 0.00 0.00 77 1015.4
20260503013504 49 63 0.0 0.0 0.00 0.00 0.00 76 1015.5
20260503012504 49 63 0.0 0.0 0.00 0.00 0.00 76 1015.3
20260503011504 50 63 0.0 0.0 0.00 0.00 0.00 76 1015.5
20260503010504 50 63 0.0 0.0 0.00 0.00 0.00 76 1015.5
20260503005504 49 63 0.0 1.0 0.00 0.00 0.00 77 1015.6
20260503004504 49 63 0.0 0.0 0.00 0.00 0.00 77 1015.6
20260503003503 49 63 0.0 0.0 0.00 0.00 0.00 77 1015.6
20260503002503 50 63 0.0 0.0 0.00 0.00 0.00 76 1015.8
20260503001503 50 63 0.0 0.0 0.00 0.00 0.00 76 1015.6
20260503000503 50 63 0.0 0.0 0.00 0.00 0.00 76 1015.8
20260502235503 50 63 0.0 0.0 0.00 0.00 0.00 76 1015.7
20260502234503 51 63 0.0 0.0 0.00 0.00 0.00 75 1015.8
20260502233503 51 63 0.0 0.0 0.00 0.00 0.00 76 1015.9
20260502232503 51 63 0.0 0.0 0.00 0.00 0.00 75 1015.9
20260502231503 51 63 0.0 0.0 0.00 0.00 0.00 75 1016.1
20260502230502 52 63 0.0 0.0 0.00 0.00 0.00 74 1016.1
20260502225504 52 63 0.0 0.0 0.00 0.00 0.00 72 1016.2
20260502224504 52 63 0.0 0.0 0.00 0.00 0.00 72 1016.2
20260502223504 53 63 0.0 0.0 0.00 0.00 0.00 71 1016.2
20260502222504 53 63 0.0 0.0 0.00 0.00 0.00 70 1016.2
20260502221504 54 63 0.0 0.0 0.00 0.00 0.00 69 1016.2
20260502220503 54 63 0.0 0.0 0.00 0.00 0.00 68 1016.2
20260502215503 55 63 0.0 0.0 0.00 0.00 0.00 67 1016.2
20260502214503 55 63 0.0 0.0 0.00 0.00 0.00 66 1016.2
20260502213503 56 63 0.0 0.0 0.00 0.00 0.00 64 1016.2
20260502212503 57 63 0.0 0.0 0.00 0.00 0.00 63 1016.2
20260502211503 58 63 0.0 0.0 0.00 0.00 0.00 61 1016.3
20260502210503 58 63 0.0 0.0 0.00 0.00 0.00 59 1016.4
20260502205503 59 63 0.0 0.0 0.00 0.00 0.00 55 1016.3
20260502204502 60 63 0.0 0.0 0.00 0.00 0.00 52 1016.4
20260502203502 61 63 0.0 0.0 0.00 0.00 0.00 49 1016.4
20260502202502 62 63 0.0 0.0 0.00 0.00 0.00 49 1016.5
20260502201503 63 63 0.0 0.0 0.00 0.00 0.00 46 1016.6
20260502200503 64 63 0.0 1.0 0.00 0.00 0.00 46 1016.7
20260502195503 64 63 0.0 1.0 0.00 0.00 0.00 45 1016.6
20260502194503 65 63 0.0 1.0 0.00 0.00 0.00 45 1016.7
20260502193502 65 63 0.0 1.0 0.00 0.00 0.00 44 1016.7
20260502192502 66 63 0.0 1.0 0.00 0.00 0.00 44 1016.5
20260502191502 67 63 0.0 2.0 0.00 0.00 0.00 43 1016.6
20260502190503 67 63 0.0 0.0 0.00 0.00 0.00 43 1016.6
20260502185503 68 64 0.0 0.0 0.00 0.00 0.00 41 1016.5
20260502184503 69 64 0.0 0.0 0.00 0.00 0.00 40 1016.4
20260502183502 70 64 0.0 2.0 0.00 0.00 0.00 39 1016.4
20260502182502 71 64 0.0 0.0 0.00 0.00 0.00 37 1016.3
20260502181502 71 64 0.0 0.0 0.00 0.00 0.00 36 1016.3
20260502180502 72 64 0.0 0.0 0.00 0.00 0.00 35 1016.3
20260502170504 77 64 1.0 2.0 0.00 0.00 0.00 28 1016.5
20260502163502 77 64 0.0 4.0 0.00 0.00 0.00 32 1016.7
20260502162502 77 62 0.0 1.0 0.00 0.00 0.00 30 1016.9
20260502161502 77 60 0.0 3.0 0.00 0.00 0.00 31 1017.1
20260502160502 77 44 1.0 3.0 0.00 0.00 0.00 31 1017.1
20260502151503 77 181 1.0 3.0 0.00 0.00 0.00 32 1017.7
20260502150503 78 122 1.0 4.0 0.00 0.00 0.00 30 1017.8
20260502130503 76 63 2.0 3.0 0.00 0.00 0.00 35 1019.4
20260502123502 75 87 1.0 3.0 0.00 0.00 0.00 34 1019.8
20260502122504 75 214 3.0 5.0 0.00 0.00 0.00 32 1019.9
20260502121504 75 256 2.0 4.0 0.00 0.00 0.00 32 1020.1
20260502120505 74 173 2.0 4.0 0.00 0.00 0.00 31 1020.3
20260502115505 74 320 2.0 3.0 0.00 0.00 0.00 33 1020.4
20260502114505 74 243 2.0 4.0 0.00 0.00 0.00 33 1020.6
20260502113505 74 331 1.0 4.0 0.00 0.00 0.00 33 1020.8
20260502112505 73 247 3.0 8.0 0.00 0.00 0.00 34 1020.9
20260502111505 73 182 3.0 5.0 0.00 0.00 0.00 35 1021.0
20260502110505 73 289 0.0 3.0 0.00 0.00 0.00 33 1021.1
20260502105505 72 178 2.0 5.0 0.00 0.00 0.00 36 1021.2
20260502104504 72 203 2.0 4.0 0.00 0.00 0.00 39 1021.2
20260502103504 71 251 1.0 4.0 0.00 0.00 0.00 42 1021.4
20260502102504 70 258 3.0 5.0 0.00 0.00 0.00 42 1021.6
20260502101504 70 287 1.0 3.0 0.00 0.00 0.00 46 1021.7
20260502100504 69 232 2.0 7.0 0.00 0.00 0.00 44 1021.8
20260502091505 65 260 1.0 4.0 0.00 0.00 0.00 54 1022.2
20260502090504 63 232 0.0 4.0 0.00 0.00 0.00 56 1022.3